• In Hungary
  • List of Countries
  • For 7 days
  • Water Temperature
  • Satellite Maps
  • Weather Map
  • News
  • Weather Widgets
  • user-avatar
    Login

    Hourly Weather Perenka

    Today, 24 May, Thursday

    Time Temperature Precipitation Wind Pressure Humidity
    00:00 +14°C° 0.1 mm 1 mps 748 mmHg 83%
    01:00 +14°C° 0.1 mm 1 mps 748 mmHg 84%
    02:00 +12°C° 0 mm 0 mps 748 mmHg 86%
    03:00 +13°C° 0 mm 1 mps 748 mmHg 86%
    04:00 +13°C° 0 mm 1 mps 748 mmHg 87%
    05:00 +13°C° 0 mm 1 mps 748 mmHg 87%
    06:00 +15°C° 0 mm 1 mps 748 mmHg 82%
    07:00 +18°C° 0 mm 1 mps 748 mmHg 76%
    08:00 +20°C° 0 mm 1 mps 748 mmHg 71%
    09:00 +21°C° 0.4 mm 1 mps 747 mmHg 67%
    10:00 +22°C° 0.4 mm 1 mps 747 mmHg 64%
    11:00 +23°C° 0.4 mm 2 mps 747 mmHg 60%
    12:00 +23°C° 0.5 mm 2 mps 747 mmHg 61%
    13:00 +24°C° 0.5 mm 2 mps 747 mmHg 61%
    14:00 +24°C° 0.5 mm 2 mps 747 mmHg 61%
    15:00 +24°C° 0.3 mm 2 mps 747 mmHg 63%
    16:00 +23°C° 0.3 mm 2 mps 747 mmHg 66%
    17:00 +23°C° 0.3 mm 2 mps 746 mmHg 68%
    18:00 +20°C° 0.3 mm 2 mps 747 mmHg 75%
    19:00 +19°C° 0.3 mm 2 mps 747 mmHg 81%
    20:00 +17°C° 0.3 mm 2 mps 747 mmHg 88%
    21:00 +16°C° 0 mm 3 mps 747 mmHg 89%
    22:00 +16°C° 0 mm 3 mps 747 mmHg 90%
    23:00 +14°C° 0 mm 3 mps 747 mmHg 91%

    Tomorrow, 25 May, Friday

    Time Temperature Precipitation Wind Pressure Humidity
    00:00 +13°C° 0 mm 3 mps 747 mmHg 91%
    01:00 +13°C° 0 mm 3 mps 748 mmHg 91%
    02:00 +13°C° 0 mm 3 mps 748 mmHg 92%
    03:00 +13°C° 0 mm 3 mps 748 mmHg 91%
    04:00 +13°C° 0 mm 3 mps 748 mmHg 91%
    05:00 +12°C° 0 mm 3 mps 749 mmHg 91%
    06:00 +14°C° 0 mm 4 mps 749 mmHg 86%
    07:00 +17°C° 0 mm 4 mps 750 mmHg 80%
    08:00 +17°C° 0 mm 5 mps 750 mmHg 75%
    09:00 +19°C° 0 mm 5 mps 750 mmHg 70%
    10:00 +21°C° 0 mm 5 mps 750 mmHg 65%
    11:00 +22°C° 0 mm 5 mps 751 mmHg 61%
    12:00 +22°C° 0 mm 5 mps 751 mmHg 58%
    13:00 +22°C° 0 mm 5 mps 751 mmHg 56%
    14:00 +22°C° 0 mm 5 mps 751 mmHg 54%
    15:00 +21°C° 0 mm 5 mps 751 mmHg 55%
    16:00 +21°C° 0 mm 5 mps 751 mmHg 56%
    17:00 +20°C° 0 mm 4 mps 751 mmHg 58%
    18:00 +18°C° 0 mm 4 mps 752 mmHg 61%
    19:00 +15°C° 0 mm 4 mps 752 mmHg 65%
    20:00 +13°C° 0 mm 3 mps 752 mmHg 69%
    21:00 +13°C° 0 mm 3 mps 753 mmHg 70%
    22:00 +12°C° 0 mm 3 mps 753 mmHg 72%
    23:00 +11°C° 0 mm 3 mps 754 mmHg 74%

    Day after tomorrow, 26 May, Saturday

    Time Temperature Precipitation Wind Pressure Humidity
    00:00 +10°C° 0 mm 3 mps 754 mmHg 75%
    01:00 +10°C° 0 mm 3 mps 755 mmHg 76%
    02:00 +9°C° 0 mm 3 mps 755 mmHg 77%
    03:00 +9°C° 0 mm 3 mps 755 mmHg 78%
    04:00 +9°C° 0 mm 3 mps 756 mmHg 78%
    05:00 +9°C° 0 mm 3 mps 756 mmHg 79%
    06:00 +11°C° 0 mm 3 mps 756 mmHg 72%
    07:00 +12°C° 0 mm 3 mps 756 mmHg 65%
    08:00 +14°C° 0 mm 4 mps 757 mmHg 59%
    09:00 +15°C° 0 mm 4 mps 757 mmHg 55%
    10:00 +18°C° 0 mm 4 mps 757 mmHg 52%
    11:00 +19°C° 0 mm 4 mps 757 mmHg 49%
    12:00 +19°C° 0 mm 4 mps 757 mmHg 48%
    13:00 +20°C° 0 mm 4 mps 756 mmHg 47%
    14:00 +20°C° 0 mm 4 mps 756 mmHg 47%
    15:00 +20°C° 0 mm 4 mps 756 mmHg 50%
    16:00 +20°C° 0 mm 3 mps 756 mmHg 53%
    17:00 +19°C° 0 mm 3 mps 755 mmHg 56%
    18:00 +17°C° 0 mm 3 mps 755 mmHg 62%
    19:00 +14°C° 0 mm 3 mps 755 mmHg 68%
    20:00 +13°C° 0 mm 2 mps 755 mmHg 74%
    21:00 +13°C° 0 mm 2 mps 755 mmHg 77%
    22:00 +12°C° 0 mm 2 mps 756 mmHg 80%
    23:00 +10°C° 0 mm 2 mps 756 mmHg 82%

    27 May, Sunday

    Time Temperature Precipitation Wind Pressure Humidity
    00:00 +9°C° 0 mm 2 mps 756 mmHg 84%
    01:00 +9°C° 0 mm 2 mps 756 mmHg 87%
    02:00 +8°C° 0 mm 2 mps 756 mmHg 89%
    03:00 +8°C° 0 mm 2 mps 756 mmHg 88%
    04:00 +8°C° 0 mm 2 mps 756 mmHg 88%
    05:00 +9°C° 0 mm 2 mps 756 mmHg 87%
    06:00 +12°C° 0 mm 2 mps 755 mmHg 80%
    07:00 +13°C° 0 mm 2 mps 755 mmHg 73%
    08:00 +15°C° 0 mm 2 mps 755 mmHg 66%
    09:00 +16°C° 0 mm 2 mps 755 mmHg 61%
    10:00 +18°C° 0 mm 2 mps 755 mmHg 56%
    11:00 +19°C° 0 mm 2 mps 755 mmHg 51%
    12:00 +19°C° 0 mm 2 mps 754 mmHg 50%
    13:00 +20°C° 0 mm 2 mps 754 mmHg 48%
    14:00 +21°C° 0 mm 2 mps 753 mmHg 47%
    15:00 +20°C° 0 mm 2 mps 753 mmHg 49%
    16:00 +21°C° 0 mm 1 mps 753 mmHg 50%
    17:00 +21°C° 0 mm 1 mps 753 mmHg 52%
    18:00 +19°C° 0 mm 1 mps 753 mmHg 59%
    19:00 +16°C° 0 mm 1 mps 753 mmHg 66%
    20:00 +13°C° 0 mm 0 mps 753 mmHg 72%
    21:00 +12°C° 0 mm 0 mps 753 mmHg 75%
    22:00 +12°C° 0 mm 0 mps 753 mmHg 77%
    23:00 +12°C° 0 mm 1 mps 753 mmHg 79%

    28 May, Monday

    Time Temperature Precipitation Wind Pressure Humidity
    00:00 +11°C° 0 mm 1 mps 753 mmHg 81%
    01:00 +11°C° 0 mm 1 mps 753 mmHg 82%
    02:00 +11°C° 0 mm 1 mps 753 mmHg 84%
    03:00 +11°C° 0 mm 1 mps 753 mmHg 84%
    04:00 +11°C° 0 mm 1 mps 753 mmHg 84%
    05:00 +12°C° 0 mm 1 mps 753 mmHg 83%
    06:00 +14°C° 0 mm 2 mps 754 mmHg 78%
    07:00 +16°C° 0 mm 2 mps 754 mmHg 72%
    08:00 +18°C° 0 mm 2 mps 754 mmHg 66%
    09:00 +20°C° 0 mm 2 mps 754 mmHg 61%
    10:00 +23°C° 0 mm 2 mps 754 mmHg 57%
    11:00 +24°C° 0 mm 2 mps 754 mmHg 53%
    12:00 +24°C° 0 mm 2 mps 754 mmHg 54%
    13:00 +24°C° 0 mm 2 mps 754 mmHg 54%
    14:00 +25°C° 0 mm 2 mps 754 mmHg 55%
    15:00 +24°C° 0 mm 2 mps 754 mmHg 58%
    16:00 +24°C° 0 mm 2 mps 754 mmHg 61%
    17:00 +24°C° 0 mm 2 mps 754 mmHg 64%
    18:00 +21°C° 0 mm 2 mps 754 mmHg 69%
    19:00 +19°C° 0 mm 2 mps 754 mmHg 74%
    20:00 +17°C° 0 mm 3 mps 755 mmHg 80%
    21:00 +16°C° 0 mm 3 mps 755 mmHg 82%
    22:00 +14°C° 0 mm 3 mps 755 mmHg 83%
    23:00 +13°C° 0 mm 3 mps 756 mmHg 85%

    29 May, Tuesday

    Time Temperature Precipitation Wind Pressure Humidity
    00:00 +13°C° 0 mm 2 mps 756 mmHg 85%
    01:00 +12°C° 0 mm 2 mps 756 mmHg 84%
    02:00 +12°C° 0 mm 2 mps 756 mmHg 84%
    03:00 +12°C° 0 mm 2 mps 757 mmHg 82%
    04:00 +12°C° 0 mm 2 mps 757 mmHg 80%
    05:00 +10°C° 0 mm 2 mps 757 mmHg 79%
    06:00 +14°C° 0 mm 2 mps 757 mmHg 72%
    07:00 +16°C° 0 mm 2 mps 757 mmHg 64%
    08:00 +18°C° 0 mm 2 mps 757 mmHg 57%
    09:00 +19°C° 0 mm 2 mps 757 mmHg 53%
    10:00 +22°C° 0 mm 1 mps 757 mmHg 48%
    11:00 +23°C° 0 mm 1 mps 756 mmHg 43%
    12:00 +24°C° 0 mm 1 mps 756 mmHg 42%
    13:00 +24°C° 0 mm 1 mps 756 mmHg 41%
    14:00 +25°C° 0 mm 1 mps 755 mmHg 39%
    15:00 +25°C° 0 mm 1 mps 755 mmHg 41%
    16:00 +23°C° 0 mm 0 mps 755 mmHg 43%
    17:00 +22°C° 0 mm 0 mps 754 mmHg 45%
    18:00 +20°C° 0 mm 0 mps 754 mmHg 51%
    19:00 +20°C° 0 mm 1 mps 754 mmHg 57%
    20:00 +16°C° 0 mm 1 mps 753 mmHg 63%
    21:00 +16°C° 0 mm 1 mps 753 mmHg 65%
    22:00 +15°C° 0 mm 1 mps 753 mmHg 68%
    23:00 +14°C° 0 mm 1 mps 753 mmHg 70%
    Show more